GW2240 Weather Reports


Display with metric or nautical units.
time (UTC)temp
F
wind
direction
speed
MPH
gust
MPH
rain 1hr
in
rain 24hr
in
rain mn
in
humidity
%
barometer
mb
20260510190016 87 173 0.0 2.0 0.00 0.07 0.00 70 1012.7
20260510184512 88 177 0.0 1.0 0.00 0.07 0.00 68 1012.7
20260510183011 89 188 0.0 2.0 0.00 0.07 0.00 68 1012.9
20260510181520 88 210 0.0 2.0 0.00 0.07 0.00 68 1012.9
20260510180007 87 164 0.0 1.0 0.00 0.07 0.00 72 1013.0
20260510174507 86 198 0.0 2.0 0.00 0.07 0.00 73 1013.3
20260510173004 86 110 0.0 2.0 0.00 0.07 0.00 73 1013.5
20260510171504 85 150 0.0 2.0 0.00 0.07 0.00 74 1013.8
20260510170059 85 179 0.0 2.0 0.00 0.07 0.00 76 1013.7
20260510164556 84 142 0.0 0.0 0.00 0.07 0.00 77 1014.0
20260510163058 83 159 0.0 2.0 0.00 0.07 0.00 80 1014.3
20260510161551 83 199 0.0 2.0 0.00 0.07 0.00 80 1014.4
20260510160046 82 182 0.0 2.0 0.00 0.07 0.00 82 1014.6
20260510154544 81 179 0.0 1.0 0.00 0.07 0.00 82 1014.7
20260510153046 80 31 0.0 0.0 0.00 0.07 0.00 85 1014.6
20260510151544 79 33 0.0 0.0 0.00 0.07 0.00 87 1014.6
20260510150034 79 264 0.0 0.0 0.00 0.07 0.00 88 1014.8
20260510144533 77 213 0.0 1.0 0.00 0.07 0.00 93 1014.9
20260510143028 76 25 0.0 5.0 0.00 0.07 0.00 94 1015.1
20260510141534 76 13 0.0 2.0 0.00 0.07 0.00 95 1014.9
20260510140025 75 352 0.0 3.0 0.00 0.07 0.00 95 1014.9
20260510134520 74 342 0.0 2.0 0.00 0.07 0.00 95 1014.9
20260510133015 73 10 0.0 2.0 0.00 0.07 0.00 95 1014.8
20260510131511 73 29 0.0 0.0 0.00 0.07 0.00 95 1014.6
20260510130007 72 352 0.0 0.0 0.00 0.07 0.00 95 1014.2
20260510124504 72 17 0.0 0.0 0.00 0.07 0.00 95 1013.9
20260510123059 71 17 0.0 0.0 0.00 0.07 0.00 95 1013.5
20260510121555 71 15 0.0 0.0 0.00 0.07 0.00 95 1013.4
20260510120051 71 2 0.0 0.0 0.00 0.07 0.00 94 1013.1
20260510114555 71 8 0.0 0.0 0.00 0.07 0.00 95 1012.8
20260510113047 70 18 0.0 0.0 0.00 0.07 0.00 94 1012.7
20260510111544 70 102 0.0 0.0 0.00 0.07 0.00 94 1012.3
20260510110047 70 102 0.0 0.0 0.00 0.07 0.00 94 1011.8
20260510104542 69 102 0.0 0.0 0.00 0.07 0.00 94 1011.7
20260510103047 69 102 0.0 0.0 0.00 0.07 0.00 94 1011.5
20260510101540 69 102 0.0 0.0 0.00 0.07 0.00 94 1011.2
20260510100057 68 102 0.0 0.0 0.00 0.07 0.00 94 1011.4
20260510094538 68 102 0.0 0.0 0.00 0.07 0.00 94 1011.1
20260510093045 68 102 0.0 0.0 0.00 0.07 0.00 94 1010.9
20260510091539 68 102 0.0 0.0 0.00 0.07 0.00 94 1010.9
20260510090037 69 102 0.0 0.0 0.00 0.07 0.00 94 1010.7
20260510084535 69 102 0.0 0.0 0.00 0.07 0.00 94 1010.8
20260510083043 69 102 0.0 0.0 0.00 0.07 0.00 94 1010.9
20260510081536 69 102 0.0 0.0 0.00 0.07 0.00 94 1010.9
20260510080037 69 102 0.0 0.0 0.00 0.07 0.00 94 1011.1
20260510074532 69 102 0.0 0.0 0.00 0.07 0.00 94 1011.0
20260510073030 69 102 0.0 0.0 0.00 0.07 0.00 94 1011.0
20260510071537 69 102 0.0 0.0 0.00 0.07 0.00 94 1011.0
20260510070028 69 102 0.0 0.0 0.00 0.07 0.00 94 1011.1
20260510064527 69 102 0.0 0.0 0.00 0.07 0.00 94 1011.2
20260510063027 69 102 0.0 0.0 0.00 0.07 0.00 94 1011.4
20260510061538 69 102 0.0 0.0 0.00 0.07 0.00 94 1011.4
20260510060025 69 102 0.0 0.0 0.00 0.07 0.00 93 1011.5
20260510054523 69 102 0.0 0.0 0.00 0.07 0.00 93 1011.5
20260510053022 70 102 0.0 0.0 0.00 0.07 0.00 93 1011.4
20260510051521 70 102 0.0 0.0 0.00 0.07 0.00 93 1011.5
20260510050018 70 102 0.0 0.0 0.00 0.07 0.00 93 1011.5
20260510044518 70 102 0.0 0.0 0.00 0.07 0.07 93 1011.4
20260510043021 70 102 0.0 0.0 0.00 0.07 0.07 93 1011.6
20260510041517 70 102 0.0 0.0 0.01 0.07 0.07 92 1011.8
20260510040017 70 159 0.0 0.0 0.04 0.07 0.07 91 1011.6
20260510034514 71 159 0.0 0.0 0.07 0.07 0.07 91 1011.6
20260510033013 71 159 0.0 0.0 0.07 0.07 0.07 89 1011.7
20260510031524 73 169 0.0 4.0 0.06 0.06 0.06 87 1011.7
20260510030009 76 221 0.0 2.0 0.02 0.02 0.02 81 1011.9
20260510024508 77 209 0.0 2.0 0.00 0.00 0.00 78 1011.8
20260510023005 76 18 0.0 0.0 0.00 0.00 0.00 74 1011.2
20260510021504 75 194 0.0 0.0 0.00 0.00 0.00 74 1010.1
20260510020003 76 194 0.0 0.0 0.00 0.00 0.00 72 1009.4
20260510014503 77 194 0.0 0.0 0.00 0.00 0.00 73 1009.2
20260510013003 78 194 0.0 0.0 0.00 0.00 0.00 74 1009.3
20260510011500 79 181 0.0 0.0 0.00 0.00 0.00 77 1009.0
20260510010103 80 173 0.0 0.0 0.00 0.00 0.00 74 1008.4
20260510004602 81 173 0.0 0.0 0.00 0.00 0.00 74 1008.3
20260510003120 81 222 0.0 0.0 0.00 0.00 0.00 82 1008.2
20260510001559 82 349 0.0 0.0 0.00 0.00 0.00 85 1008.2
20260510000103 82 349 0.0 0.0 0.00 0.00 0.00 84 1007.9
20260509234612 82 349 0.0 0.0 0.00 0.00 0.00 83 1007.9
20260509233156 82 349 0.0 0.0 0.00 0.00 0.00 83 1008.0
20260509231557 82 349 0.0 0.0 0.00 0.00 0.00 82 1008.0
20260509224555 83 349 0.0 0.0 0.00 0.00 0.00 79 1007.8
20260509223055 84 349 0.0 0.0 0.00 0.00 0.00 77 1007.7
20260509221555 85 349 0.0 0.0 0.00 0.00 0.00 76 1007.5
20260509220055 85 21 0.0 0.0 0.00 0.00 0.00 74 1007.6
20260509214554 85 137 0.0 0.0 0.00 0.00 0.00 74 1007.7
20260509213058 84 24 0.0 0.0 0.00 0.00 0.00 78 1007.6
20260509211601 83 24 0.0 0.0 0.00 0.00 0.00 80 1007.7
20260509210052 83 24 0.0 0.0 0.00 0.00 0.00 80 1007.9
20260509204548 85 24 0.0 0.0 0.00 0.00 0.00 73 1008.1
20260509203047 88 338 0.0 0.0 0.00 0.00 0.00 70 1008.2
20260509201547 85 183 0.0 0.0 0.00 0.00 0.00 75 1008.4
20260509200052 84 137 0.0 0.0 0.00 0.00 0.00 78 1008.6
20260509194542 86 144 0.0 0.0 0.00 0.00 0.00 74 1008.8
20260509193041 87 258 0.0 0.0 0.00 0.00 0.00 71 1008.8
20260509191540 86 164 0.0 0.0 0.00 0.00 0.00 71 1009.0